GW4820 Weather Reports


time (UTC)temp
C
wind
direction
speed
KPH
gust
KPH
rain 1hr
cm
rain 24hr
cm
rain mn
cm
humidity
%
barometer
mb
20260504210935 25 144 0.0 4.8 0.00 0.00 0.00 34 1014.5
20260504210432 25 218 1.6 4.8 0.00 0.00 0.00 33 1014.6
20260504205929 25 200 3.2 4.8 0.00 0.00 0.00 33 1014.7
20260504205427 25 156 1.6 3.2 0.00 0.00 0.00 33 1014.8
20260504204925 24 240 3.2 3.2 0.00 0.00 0.00 33 1014.7
20260504204423 25 143 1.6 6.4 0.00 0.00 0.00 33 1014.9
20260504203922 24 226 6.4 11.3 0.00 0.00 0.00 33 1014.8
20260504203419 24 199 3.2 4.8 0.00 0.00 0.00 33 1014.9
20260504202914 25 230 1.6 3.2 0.00 0.00 0.00 33 1014.8
20260504202412 24 244 4.8 4.8 0.00 0.00 0.00 34 1015.0
20260504201908 24 232 4.8 6.4 0.00 0.00 0.00 34 1015.0
20260504201406 24 282 3.2 4.8 0.00 0.00 0.00 34 1015.0
20260504200903 24 199 8.0 11.3 0.00 0.00 0.00 35 1015.2
20260504200400 24 282 4.8 9.7 0.00 0.00 0.00 35 1015.2
20260504195857 24 219 3.2 9.7 0.00 0.00 0.00 35 1015.4
20260504195352 25 233 3.2 4.8 0.00 0.00 0.00 34 1015.4
20260504194848 24 79 1.6 4.8 0.00 0.00 0.00 34 1015.4
20260504194344 24 233 4.8 11.3 0.00 0.00 0.00 34 1015.4
20260504193841 25 210 1.6 9.7 0.00 0.00 0.00 34 1015.6
20260504193338 25 288 3.2 6.4 0.00 0.00 0.00 35 1015.4
20260504192837 24 227 1.6 4.8 0.00 0.00 0.00 35 1015.7
20260504192334 24 294 3.2 4.8 0.00 0.00 0.00 35 1015.8
20260504191832 25 229 3.2 4.8 0.00 0.00 0.00 34 1015.6
20260504191330 23 177 0.0 1.6 0.00 0.00 0.00 37 1015.9
20260504190825 23 231 1.6 3.2 0.00 0.00 0.00 35 1015.8
20260504190321 24 174 1.6 4.8 0.00 0.00 0.00 34 1015.9
20260504185818 24 83 3.2 4.8 0.00 0.00 0.00 35 1015.9
20260504185315 24 93 0.0 1.6 0.00 0.00 0.00 35 1016.0
20260504184811 23 240 1.6 4.8 0.00 0.00 0.00 34 1016.3
20260504184307 24 188 1.6 4.8 0.00 0.00 0.00 34 1016.1
20260504183803 24 187 1.6 4.8 0.00 0.00 0.00 35 1016.2
20260504183300 24 195 4.8 6.4 0.00 0.00 0.00 35 1016.3
20260504182758 24 321 0.0 1.6 0.00 0.00 0.00 35 1016.4
20260504182255 25 128 3.2 4.8 0.00 0.00 0.00 33 1016.5
20260504181753 23 193 3.2 4.8 0.00 0.00 0.00 36 1016.4
20260504181250 23 288 3.2 4.8 0.00 0.00 0.00 35 1016.5
20260504180749 24 220 3.2 4.8 0.00 0.00 0.00 34 1016.5
20260504180247 23 166 3.2 4.8 0.00 0.00 0.00 35 1016.5
20260504175744 24 252 1.6 3.2 0.00 0.00 0.00 34 1016.3
20260504175241 24 158 3.2 4.8 0.00 0.00 0.00 36 1016.4
20260504174739 24 181 3.2 6.4 0.00 0.00 0.00 35 1016.6
20260504174237 23 261 0.0 1.6 0.00 0.00 0.00 35 1016.3
20260504173733 23 149 3.2 6.4 0.00 0.00 0.00 35 1016.6
20260504173230 23 184 0.0 6.4 0.00 0.00 0.00 35 1016.6
20260504172726 24 181 1.6 4.8 0.00 0.00 0.00 34 1016.6
20260504172223 23 252 3.2 3.2 0.00 0.00 0.00 36 1016.9
20260504171720 23 131 4.8 9.7 0.00 0.00 0.00 36 1016.6
20260504171217 23 187 3.2 9.7 0.00 0.00 0.00 35 1017.0
20260504170713 23 120 4.8 6.4 0.00 0.00 0.00 35 1017.2
20260504170211 23 199 1.6 4.8 0.00 0.00 0.00 34 1017.3
20260504160129 22 223 0.0 3.2 0.00 0.00 0.00 33 1018.4
20260504151056 21 273 3.2 6.4 0.00 0.00 0.00 38 1018.7
20260504150554 21 208 3.2 4.8 0.00 0.00 0.00 40 1018.7
20260504141020 17 180 0.0 3.2 0.00 0.00 0.00 58 1018.3
20260504140516 17 211 1.6 3.2 0.00 0.00 0.00 55 1018.4
20260504130441 12 176 1.6 3.2 0.00 0.00 0.00 71 1018.2
20260504110328 5 199 0.0 0.0 0.00 0.00 0.00 94 1018.0
20260504100245 5 198 0.0 0.0 0.00 0.00 0.00 93 1017.7
20260504081639 6 323 0.0 0.0 0.00 0.00 0.00 88 1017.7
20260504081135 6 323 0.0 0.0 0.00 0.00 0.00 87 1017.8
20260504080631 7 323 0.0 0.0 0.00 0.00 0.00 87 1017.6
20260504080128 7 323 0.0 0.0 0.00 0.00 0.00 87 1017.6
20260504050444 11 299 0.0 1.6 0.00 0.00 0.00 72 1018.0
20260504045941 11 301 0.0 1.6 0.00 0.00 0.00 72 1017.9
20260504045437 10 282 0.0 1.6 0.00 0.00 0.00 72 1017.7
20260504044933 10 292 0.0 1.6 0.00 0.00 0.00 74 1017.9
20260504044431 10 264 0.0 1.6 0.00 0.00 0.00 77 1017.8
20260504043928 9 235 0.0 0.0 0.00 0.00 0.00 76 1017.4
20260504043425 9 234 0.0 0.0 0.00 0.00 0.00 76 1017.6
20260504042923 9 235 0.0 0.0 0.00 0.00 0.00 75 1017.6
20260504042419 9 235 0.0 0.0 0.00 0.00 0.00 76 1017.7
20260504041916 9 235 0.0 0.0 0.00 0.00 0.00 76 1017.7
20260504041412 8 235 0.0 0.0 0.00 0.00 0.00 77 1017.7
20260504040908 8 234 0.0 0.0 0.00 0.00 0.00 77 1017.7
20260504040406 8 234 0.0 0.0 0.00 0.00 0.00 78 1017.7
20260504035901 8 234 0.0 0.0 0.00 0.00 0.00 77 1017.7
20260504035359 8 234 0.0 0.0 0.00 0.00 0.00 76 1017.7
20260504034855 9 234 0.0 0.0 0.00 0.00 0.00 76 1018.1
20260504034353 9 234 0.0 0.0 0.00 0.00 0.00 75 1018.0
20260504033850 9 234 0.0 0.0 0.00 0.00 0.00 75 1018.2
20260504033348 9 234 0.0 0.0 0.00 0.00 0.00 75 1018.0
20260504032844 9 234 0.0 0.0 0.00 0.00 0.00 75 1017.9
20260504032341 9 234 0.0 0.0 0.00 0.00 0.00 75 1018.0
20260504031838 9 234 0.0 0.0 0.00 0.00 0.00 74 1017.8
20260504031335 9 234 0.0 0.0 0.00 0.00 0.00 74 1018.1
20260504030831 9 234 0.0 0.0 0.00 0.00 0.00 73 1018.1
20260504030329 9 234 0.0 0.0 0.00 0.00 0.00 74 1018.1
20260504025825 10 234 0.0 0.0 0.00 0.00 0.00 73 1018.2
20260504025322 10 234 0.0 0.0 0.00 0.00 0.00 72 1018.0
20260504024819 10 234 0.0 0.0 0.00 0.00 0.00 71 1018.2
20260504024315 10 234 0.0 0.0 0.00 0.00 0.00 69 1017.9
20260504023812 10 234 0.0 0.0 0.00 0.00 0.00 68 1017.9
20260504023309 10 234 0.0 0.0 0.00 0.00 0.00 68 1018.1
20260504022804 10 234 0.0 0.0 0.00 0.00 0.00 71 1017.9
20260504022301 10 234 0.0 0.0 0.00 0.00 0.00 70 1017.8
20260504021758 10 234 0.0 0.0 0.00 0.00 0.00 70 1017.6
20260504021256 10 234 0.0 0.0 0.00 0.00 0.00 70 1017.7
20260504020752 10 234 0.0 0.0 0.00 0.00 0.00 69 1017.6
20260504020249 10 234 0.0 0.0 0.00 0.00 0.00 69 1017.4
20260504015745 10 234 0.0 0.0 0.00 0.00 0.00 67 1017.6
20260504015242 10 234 0.0 0.0 0.00 0.00 0.00 66 1017.5
20260504014737 11 234 0.0 0.0 0.00 0.00 0.00 65 1017.3
20260504014234 11 234 0.0 0.0 0.00 0.00 0.00 65 1017.2
20260504013732 11 234 0.0 0.0 0.00 0.00 0.00 65 1017.1
20260504013229 11 234 0.0 0.0 0.00 0.00 0.00 64 1017.1
20260504012725 11 234 0.0 0.0 0.00 0.00 0.00 62 1017.0
20260504012224 11 234 0.0 0.0 0.00 0.00 0.00 61 1017.1
20260504011720 11 234 0.0 0.0 0.00 0.00 0.00 62 1017.1
20260504011217 12 234 0.0 0.0 0.00 0.00 0.00 64 1016.9
20260504010713 12 234 0.0 0.0 0.00 0.00 0.00 63 1016.6
20260504010209 12 234 0.0 0.0 0.00 0.00 0.00 62 1016.8
20260504005705 12 234 0.0 0.0 0.00 0.00 0.00 60 1016.6
20260504005202 12 234 0.0 0.0 0.00 0.00 0.00 57 1016.9
20260504004700 12 234 0.0 0.0 0.00 0.00 0.00 55 1016.8
20260504004157 13 234 0.0 0.0 0.00 0.00 0.00 55 1016.8
20260504003653 13 234 0.0 0.0 0.00 0.00 0.00 53 1016.8
20260504003150 13 234 0.0 0.0 0.00 0.00 0.00 53 1016.6
20260504002647 14 234 0.0 0.0 0.00 0.00 0.00 53 1016.8
20260504002145 14 234 0.0 0.0 0.00 0.00 0.00 53 1016.8
20260504001642 14 234 0.0 0.0 0.00 0.00 0.00 48 1016.5
20260504001138 15 234 0.0 0.0 0.00 0.00 0.00 51 1016.4
20260504000635 15 234 0.0 0.0 0.00 0.00 0.00 47 1016.5
20260504000133 15 234 0.0 0.0 0.00 0.00 0.00 47 1016.4
20260503235631 15 234 0.0 0.0 0.00 0.00 0.00 46 1016.4
20260503235127 15 234 0.0 0.0 0.00 0.00 0.00 45 1016.2
20260503234625 16 234 0.0 0.0 0.00 0.00 0.00 44 1016.5
20260503234123 16 234 0.0 0.0 0.00 0.00 0.00 44 1016.5
20260503233620 16 234 0.0 0.0 0.00 0.00 0.00 43 1016.2
20260503233116 16 234 0.0 0.0 0.00 0.00 0.00 43 1016.4
20260503232613 16 221 0.0 0.0 0.00 0.00 0.00 42 1016.3
20260503232110 17 220 0.0 1.6 0.00 0.00 0.00 41 1016.4
20260503231608 17 226 0.0 0.0 0.00 0.00 0.00 39 1016.3
20260503231104 17 240 0.0 1.6 0.00 0.00 0.00 36 1016.3
20260503230601 18 223 0.0 1.6 0.00 0.00 0.00 36 1016.4
20260503230058 18 219 0.0 3.2 0.00 0.00 0.00 37 1016.3
20260503225555 18 236 1.6 4.8 0.00 0.00 0.00 34 1016.5
20260503225050 18 222 0.0 4.8 0.00 0.00 0.00 34 1016.4
20260503224548 18 223 1.6 4.8 0.00 0.00 0.00 33 1016.5
20260503224046 18 205 0.0 0.0 0.00 0.00 0.00 36 1016.6
20260503223544 18 282 1.6 1.6 0.00 0.00 0.00 33 1016.4
20260503223039 18 251 1.6 3.2 0.00 0.00 0.00 33 1016.8
20260503222537 18 203 1.6 4.8 0.00 0.00 0.00 32 1016.6
20260503222035 18 271 1.6 6.4 0.00 0.00 0.00 32 1016.5
20260503221533 18 244 0.0 0.0 0.00 0.00 0.00 36 1016.6
20260503221030 18 112 1.6 3.2 0.00 0.00 0.00 34 1016.9
20260503220526 18 331 0.0 1.6 0.00 0.00 0.00 34 1016.9
20260503220023 18 152 0.0 1.6 0.00 0.00 0.00 31 1016.6
20260503215520 18 218 0.0 4.8 0.00 0.00 0.00 31 1017.0
20260503215017 19 206 3.2 4.8 0.00 0.00 0.00 32 1017.1
20260503214516 19 197 3.2 6.4 0.00 0.00 0.00 31 1017.0
20260503214012 19 280 1.6 9.7 0.00 0.00 0.00 30 1017.1
20260503213510 19 177 1.6 6.4 0.00 0.00 0.00 30 1017.2
20260503213007 19 290 1.6 6.4 0.00 0.00 0.00 30 1017.3
20260503212504 19 127 3.2 9.7 0.00 0.00 0.00 31 1017.3
20260503212001 19 213 1.6 6.4 0.00 0.00 0.00 31 1017.4
20260503211458 19 251 3.2 3.2 0.00 0.00 0.00 33 1017.6